Starlink 32173

operational
NORAD ID: 60586 Int'l Des: 2024-150 Owner: SPXS Country: US Constellation: starlink
LEOCIRCULAR

About Starlink 32173

Description loading...

Live Position

Loading 3D Globe...

Upcoming Passes

Altitude History

Altitude vs Time

uPlot chart will show altitude changes over time

Two-Line Element Set

1 60586U 24150D 25304.95488946 .00002359 00000-0 91790-4 0 9993
2 60586 53.1595 184.8326 0001315 85.4952 274.6199 15.30187065 68334
Epoch: Oct 31, 2025 • Age: 32 hours

Current Status

Altitude 476.3 km
Velocity 7.63 km/s
Sub-Earth Point 29.38°N, 65.26°E
Launch Date Aug 20, 2024
Age 1.1 years
Type internet

Technical Details

Classification Payload
Mass 730.00 kg
Dry Mass 700.00 kg
Total Mass 730.00 kg
Length 0.30 m
Diameter 4.10 m
Span 29.00 m
Shape Box + pan
Manufacturer SPXS
Bus Type Starlink V2M
Phase Status In Orbit
Owner/State SPXS/US

Large Constellations

Loading constellations...